Wolf Point, MT

11:07 PM MST on November 21, 2019 (GMT -0700)
Clayton

Weather History for KOLF - October, 2019

Change the Weather History Date:

Tuesday, October 22, 2019

  Actual Average Record
Temperature  
Mean Temperature 37 °F -  
Max Temperature 48 °F 55 °F 71 °F (1998)
Min Temperature 25 °F 27 °F 0 °F (2002)
Degree Days  
Heating Degree Days 28    
Cooling Degree Days 0    
Moisture  
Dew Point 31 °F    
Average Humidity 78    
Maximum Humidity 89    
Minimum Humidity 50    
Precipitation  
Precipitation 0.27 in 0.03 in 0.47 in (2012)
Month to date precipitation 0.54 0.63  
Year to date precipitation 17.98 11.31  
Sea Level Pressure  
Sea Level Pressure 29.87 in    
Wind  
Wind Speed 6 mph (South)    
Max Wind Speed 18 mph    
Max Gust Speed -    
Visibility 9 miles    
Events Rain    
T = Trace of Precipitation, MM = Missing Value Source: NWS Daily Summary

Daily Weather History Graph

Daily Weather History Graph

Search for Another Location

Airport or City:

Astronomy

Oct. 22, 2019 Rise Set
Actual Time 7:31 AM MDT 6:00 PM MDT
Civil Twilight 7:00 AM MDT 6:32 PM MDT
Nautical Twilight 6:23 AM MDT 7:08 PM MDT
Astronomical Twilight 5:47 AM MDT 7:44 PM MDT
Moon 12:06 AM MDT 3:46 PM MDT
Length of Visible Light 11h 32m
Length of Day
10h 28m
Last Quarter, 36% of the Moon is Illuminated
Oct 22
Last Quarter
Oct 27
New
Nov 4
First Quarter
Nov 12
Full
Nov 19
Last Quarter

Hourly Weather History & Observations

Time (MDT) Temp. Windchill Dew Point Humidity Pressure Visibility Wind Dir Wind Speed Gust Speed Precip Events Conditions
12:53 AM 26.1 °F 21.9 °F 23.0 °F 88% 30.04 in 10.0 mi West 3.5 mph - N/A   Partly Cloudy
1:53 AM 28.0 °F 24.2 °F 24.1 °F 85% 30.02 in 10.0 mi West 3.5 mph - N/A   Mostly Cloudy
2:53 AM 28.0 °F - 24.1 °F 85% 30.02 in 10.0 mi Calm Calm - N/A   Clear
3:53 AM 27.0 °F 21.6 °F 23.0 °F 85% 30.02 in 10.0 mi SW 4.6 mph - N/A   Clear
4:53 AM 30.0 °F 25.2 °F 25.0 °F 82% 30.00 in 10.0 mi SW 4.6 mph - N/A   Clear
5:53 AM 28.0 °F 19.3 °F 24.1 °F 85% 30.02 in 10.0 mi SW 9.2 mph - N/A   Clear
6:53 AM 27.0 °F 18.0 °F 23.0 °F 85% 30.03 in 10.0 mi WSW 9.2 mph - N/A   Clear
7:53 AM 27.0 °F 19.5 °F 23.0 °F 85% 30.01 in 10.0 mi WSW 6.9 mph - N/A   Clear
8:53 AM 30.0 °F 23.2 °F 25.0 °F 82% 29.99 in 10.0 mi WSW 6.9 mph - N/A   Clear
9:53 AM 35.1 °F 30.1 °F 28.0 °F 76% 29.99 in 10.0 mi WSW 5.8 mph - N/A   Clear
10:53 AM 41.0 °F 38.0 °F 28.9 °F 62% 29.95 in 10.0 mi WSW 4.6 mph - N/A   Clear
11:53 AM 45.0 °F 41.8 °F 30.0 °F 56% 29.92 in 10.0 mi SW 5.8 mph - N/A   Partly Cloudy
12:53 PM 46.9 °F - 30.0 °F 52% 29.89 in 10.0 mi Calm Calm - N/A   Overcast
1:53 PM 48.0 °F - 30.0 °F 50% 29.85 in 10.0 mi SSW 4.6 mph - N/A   Overcast
2:53 PM 48.0 °F - 32.0 °F 54% 29.83 in 10.0 mi SW 4.6 mph - N/A   Overcast
3:53 PM 46.9 °F - 34.0 °F 61% 29.81 in 10.0 mi Calm Calm - 0.00 in Rain Light Rain
4:53 PM 45.0 °F 41.8 °F 34.0 °F 65% 29.79 in 7.0 mi Variable 5.8 mph - 0.00 in Rain Light Rain
5:53 PM 43.0 °F 40.3 °F 37.0 °F 80% 29.78 in 10.0 mi ESE 4.6 mph - 0.01 in   Overcast
6:21 PM 42.1 °F 36.1 °F 37.0 °F 82% 29.70 in 6.0 mi East 10.4 mph - 0.03 in Rain Rain
6:53 PM 42.1 °F 38.4 °F 37.9 °F 85% 29.76 in 10.0 mi ESE 5.8 mph - 0.04 in Rain Light Rain
7:53 PM 42.1 °F 37.1 °F 37.0 °F 82% 29.76 in 10.0 mi ENE 8.1 mph - 0.00 in   Overcast
8:21 PM 42.1 °F 36.6 °F 37.0 °F 82% 29.70 in 10.0 mi East 9.2 mph - N/A   Overcast
8:53 PM 41.0 °F 33.9 °F 37.0 °F 86% 29.75 in 7.0 mi East 12.7 mph - 0.00 in Rain Light Rain
9:08 PM 41.0 °F 34.3 °F 37.9 °F 89% 29.70 in 4.0 mi ENE 11.5 mph - 0.01 in Rain Light Rain
9:53 PM 39.9 °F 32.1 °F 37.0 °F 89% 29.77 in 6.0 mi ENE 13.8 mph - 0.08 in Rain Light Rain
10:22 PM 39.0 °F 31.4 °F 36.0 °F 89% 29.73 in 5.0 mi ENE 12.7 mph - 0.05 in Rain Rain
10:53 PM 39.0 °F 29.6 °F 35.1 °F 86% 29.79 in 10.0 mi East 18.4 mph - 0.08 in Rain Light Rain
11:53 PM 36.0 °F 26.7 °F 33.1 °F 89% 29.83 in 6.0 mi NE 15.0 mph - 0.03 in Rain Light Rain